Location: Praha
(50.0830°N, 14.4670°E)
Time: 00:29:07
(UTC+02:00)

Mayak - Visible Passes

Search period start: 18 June 2018 00:00
Search period end: 28 June 2018 00:00
Orbit: 584 x 603 km, 97.6° (Epoch: 16 June)

Date Brightness Start Highest point End Pass type
(mag) Time Alt. Az. Time Alt. Az. Time Alt. Az.
18 Jun -1.1 00:16:39 10° NNE 00:20:47 58° E 00:22:38 30° SSE visible
18 Jun 1.0 01:53:08 10° NNW 01:56:00 18° WNW 01:58:52 10° WSW visible
19 Jun -1.3 00:25:49 10° NNE 00:30:00 72° ESE 00:31:55 31° S visible
19 Jun 1.2 02:02:39 10° NNW 02:05:06 15° WNW 02:07:32 10° W visible
19 Jun 1.1 23:02:07 10° ENE 23:02:56 10° E 23:03:44 10° E visible
20 Jun -1.3 00:35:00 10° NNE 00:39:13 89° ESE 00:41:13 30° SSW visible
20 Jun 1.3 02:12:18 10° NNW 02:14:11 13° WNW 02:16:03 10° W visible
20 Jun 0.9 23:10:17 10° ENE 23:12:15 13° E 23:13:53 11° ESE visible
21 Jun -1.2 00:44:12 10° N 00:48:23 74° WNW 00:50:31 28° SSW visible
21 Jun 1.4 02:22:16 10° NW 02:23:15 11° NW 02:24:13 10° WNW visible
21 Jun 0.7 23:18:56 10° NE 23:21:33 16° E 23:23:11 13° ESE visible
22 Jun -0.9 00:53:26 10° N 00:57:34 60° WNW 00:59:48 25° SW visible
22 Jun 0.5 23:27:47 10° NE 23:30:50 19° E 23:32:28 16° ESE visible
23 Jun -0.6 01:02:42 10° N 01:06:44 48° WNW 01:09:05 22° SW visible
23 Jun 0.2 23:36:43 10° NE 23:40:07 24° E 23:41:45 19° SE visible
24 Jun -0.2 01:11:59 10° N 01:15:53 39° WNW 01:18:22 19° SW visible
24 Jun -0.1 23:45:44 10° NNE 23:49:23 29° E 23:51:02 22° SE visible
25 Jun 0.1 01:21:17 10° N 01:25:00 32° WNW 01:27:39 16° WSW visible
25 Jun -0.4 23:54:46 10° NNE 23:58:37 35° E 00:00:19 25° SE visible
26 Jun 0.4 01:30:37 10° N 01:34:08 27° WNW 01:36:56 14° WSW visible
27 Jun -0.7 00:03:52 10° NNE 00:07:52 43° E 00:09:35 28° SSE visible
27 Jun 0.7 01:39:58 10° NNW 01:43:15 23° WNW 01:46:12 11° WSW visible
